Notices

Please take our survey and provide feedback: https://eccc.sondage-survey.ca/f/LanguageSelection.aspx?s=442ca660-fcf1-47c0-95a9-59707d6fd709

Please note that for the Engineering Climate Datasets, IDF dataset is available through this link.  Intensity-Duration-Frequency (IDF) Files: Includes the latest version of short-duration rainfall Intensity-Duration-Frequency (IDF) statistics in the form of tables and graphs with accompanying documentation for various locations across Canada.  Current IDF files can be accessed through our station finder application or downloaded for each province and territory across Canada.  In addition, historical versions of IDF files are also available for download.  Updates of IDF files are provided approximately every two years depending on the availability of data.   Thank you for your patience as we enhance our systems.

Hourly Data Report for March 09, 2012

HALIFAX STANFIELD INT'L A
NOVA SCOTIA

44°52'48.060" N
63°30'00.050" W
145.40 m
8202250
71395
YHZ

Download Data

Hourly Data (March 2012)
Hourly Data Report for March 9, 2012
TIME
LST
Temp Definition
°C
Dew Point Definition
°C
Rel Hum Definition
%
Precip. Amount Definition
mm

Wind Dir Definition
10's deg

Wind Spd Definition
km/h
Visibility Definition
km
Stn Press Definition
kPa
Hmdx Definition


Wind Chill Definition


Weather Definition


00:00 7.5 6.6 94   20 48 24.1 99.34     Mostly Cloudy
01:00 7.5 6.6 94   20 59 24.1 99.21     Cloudy
02:00 8.0 7.1 94   20 54 24.1 99.15     Cloudy
03:00 8.6 7.8 95   21 61 24.1 99.05     Cloudy
04:00 9.4 8.2 92   21 59 24.1 98.98     Cloudy
05:00 9.0 7.9 93   20 48 24.1 98.88     Cloudy
06:00 9.0 7.8 92   20 50 24.1 98.76     Cloudy
07:00 9.0 7.9 93   21 54 4.8 98.58     Fog
08:00 8.9 8.2 95   21 70 4.0 98.50     Rain Showers,Fog
09:00 5.5 4.6 94   31 37 1.2 98.74     Rain Showers,Fog
10:00 4.4 3.9 97   30 17 6.4 98.88     Rain Showers,Fog
11:00 3.6 2.7 94   27 20 9.7 99.00     Rain Showers,Fog
12:00 2.7 1.8 94   28 20 19.3 99.13     Rain Showers
13:00 2.0 0.4 89   27 24 24.1 99.20     Cloudy
14:00 2.0 -0.1 86   29 24 24.1 99.24     Cloudy
15:00 2.2 -0.6 82   28 19 24.1 99.34     Mostly Cloudy
16:00 2.0 -2.1 74   28 15 24.1 99.38     Mostly Cloudy
17:00 1.3 -3.0 73   30 15 24.1 99.45     Mostly Cloudy
18:00 0.6 -3.3 75   30 9 24.1 99.62     Mostly Cloudy
19:00 0.3 -4.0 73   30 13 24.1 99.67     Mostly Cloudy
20:00 0.2 -5.0 68   31 15 24.1 99.74     Mostly Cloudy
21:00 -0.5 LegendMM LegendMM   30 11 24.1 99.90   -4 Mostly Cloudy
22:00 -0.7 -5.7 69   33 9 24.1 99.96   -4 Mostly Cloudy
23:00 -1.8 -6.1 72   33 11 24.1 100.02   -6 Mainly Clear

Notes on Data Quality.

Legend

  • E = Estimated
  • M = Missing
  • NA = Not Available*
  • [empty] = Indicates an unobserved value
Date modified: